Change the Weather History Date:

Sunday, November 21, 2010

  Actual Average Record
Temperature  
Mean Temperature 53 °F -  
Max Temperature 62 °F 54 °F 71 °F (2007)
Min Temperature 44 °F 38 °F 21 °F (2000)
Degree Days  
Heating Degree Days 12    
Growing Degree Days 3 (Base 50)    
Moisture  
Dew Point 50 °F    
Average Humidity 85    
Maximum Humidity 94    
Minimum Humidity 77    
Precipitation  
Precipitation 0.00 in - - ()
Sea Level Pressure  
Sea Level Pressure 30.10 in    
Wind  
Wind Speed 11 mph (South)    
Max Wind Speed 21 mph    
Max Gust Speed 25 mph    
Visibility 5 miles    
Events      
Averages and records for this station are not official NWS values.
T = Trace of Precipitation, MM = Missing Value Source: NWS Daily Summary

Daily Weather History Graph

Daily Weather History Graph

Search for Another Location

Airport or City:

Trip Planner

Search our weather history database for the weather conditions in past years. The results will help you decide how hot, cold, wet, or windy it might be!

Date:

Astronomy

Nov. 21, 2010 Rise Set
Actual Time 6:46 AM CST 4:52 PM CST
Civil Twilight 6:18 AM CST 5:20 PM CST
Nautical Twilight 5:47 AM CST 5:51 PM CST
Astronomical Twilight 5:16 AM CST 6:22 PM CST
Moon 4:45 PM CST (11/21) 6:45 AM CST (11/21)
Length of Visible Light 11h 01m
Length of Day
10h 05m
Full, 100% of the Moon is Illuminated
Nov 21
Full
Nov 28
Last Quarter
Dec 5
New
Dec 13
First Quarter
Dec 21
Full

Hourly Weather History & Observations

Time (CST) Temp. Windchill Dew Point Humidity Pressure Visibility Wind Dir Wind Speed Gust Speed Precip Events Conditions
12:15 AM 46.4 °F 41.1 °F 42.8 °F 87% 30.13 in 6.0 mi South 11.5 mph - N/A   Clear
12:35 AM 44.6 °F 40.2 °F 41.0 °F 87% 30.13 in 5.0 mi South 8.1 mph - N/A   Clear
12:55 AM 44.6 °F 40.2 °F 41.0 °F 87% 30.14 in 5.0 mi SSW 8.1 mph - N/A   Clear
1:15 AM 44.6 °F 39.2 °F 42.8 °F 93% 30.14 in 4.0 mi SSW 10.4 mph - N/A   Scattered Clouds
1:35 AM 46.4 °F 41.5 °F 42.8 °F 87% 30.14 in 4.0 mi SSW 10.4 mph - N/A   Mostly Cloudy
1:55 AM 44.6 °F 39.7 °F 41.0 °F 87% 30.13 in 3.0 mi South 9.2 mph - N/A   Scattered Clouds
2:15 AM 46.4 °F 42.4 °F 42.8 °F 87% 30.14 in 3.0 mi South 8.1 mph - N/A   Mostly Cloudy
2:35 AM 46.4 °F 43.5 °F 42.8 °F 87% 30.14 in 3.0 mi South 5.8 mph - N/A   Overcast
2:55 AM 46.4 °F 42.9 °F 42.8 °F 87% 30.13 in 3.0 mi South 6.9 mph - N/A   Overcast
3:15 AM 46.4 °F 42.9 °F 42.8 °F 87% 30.13 in 3.0 mi South 6.9 mph - N/A   Overcast
3:35 AM 46.4 °F 41.9 °F 42.8 °F 87% 30.12 in 3.0 mi South 9.2 mph - N/A   Overcast
3:55 AM 46.4 °F 41.5 °F 42.8 °F 87% 30.12 in 3.0 mi South 10.4 mph - N/A   Overcast
4:15 AM 46.4 °F 41.9 °F 42.8 °F 87% 30.12 in 3.0 mi South 9.2 mph - N/A   Overcast
4:35 AM 46.4 °F 42.4 °F 42.8 °F 87% 30.13 in 3.0 mi South 8.1 mph - N/A   Scattered Clouds
4:55 AM 46.4 °F 41.9 °F 42.8 °F 87% 30.12 in 2.5 mi South 9.2 mph - N/A   Clear
5:15 AM 46.4 °F 42.4 °F 42.8 °F 87% 30.12 in 3.0 mi South 8.1 mph - N/A   Scattered Clouds
5:35 AM 46.4 °F 43.5 °F 42.8 °F 87% 30.13 in 3.0 mi South 5.8 mph - N/A   Overcast
5:55 AM 46.4 °F 44.3 °F 42.8 °F 87% 30.13 in 3.0 mi South 4.6 mph - N/A   Overcast
6:15 AM 46.4 °F 45.2 °F 42.8 °F 87% 30.13 in 3.0 mi SE 3.5 mph - N/A   Overcast
6:35 AM 46.4 °F 42.9 °F 42.8 °F 87% 30.13 in 3.0 mi South 6.9 mph - N/A   Overcast
6:55 AM 48.2 °F - 44.6 °F 87% 30.13 in 3.0 mi South 8.1 mph - N/A   Overcast
7:15 AM 48.2 °F - 44.6 °F 87% 30.13 in 3.0 mi South 8.1 mph - N/A   Overcast
7:35 AM 48.2 °F - 44.6 °F 87% 30.13 in 3.0 mi South 8.1 mph - N/A   Overcast
7:55 AM 50.0 °F - 46.4 °F 87% 30.13 in 3.0 mi South 8.1 mph - N/A   Overcast
8:15 AM 51.8 °F - 46.4 °F 82% 30.13 in 3.0 mi South 12.7 mph 16.1 mph N/A   Overcast
8:35 AM 51.8 °F - 48.2 °F 88% 30.13 in 2.5 mi South 9.2 mph - N/A   Overcast
8:55 AM 53.6 °F - 48.2 °F 82% 30.13 in 3.0 mi South 9.2 mph - N/A   Overcast
9:15 AM 53.6 °F - 50.0 °F 88% 30.13 in 2.0 mi South 15.0 mph - N/A   Overcast
9:55 AM 55.4 °F - 51.8 °F 88% 30.13 in 1.5 mi SSW 16.1 mph - N/A   Overcast
10:15 AM 55.4 °F - 51.8 °F 88% 30.13 in 2.0 mi SSW 17.3 mph 20.7 mph N/A   Overcast
10:35 AM 55.4 °F - 51.8 °F 88% 30.14 in 1.5 mi SSW 16.1 mph - N/A   Overcast
10:55 AM 55.4 °F - 53.6 °F 94% 30.13 in 1.8 mi SSW 16.1 mph 20.7 mph N/A   Overcast
11:15 AM 57.2 °F - 53.6 °F 88% 30.13 in 2.5 mi SSW 15.0 mph - N/A   Overcast
11:35 AM 57.2 °F - 53.6 °F 88% 30.12 in 2.0 mi SSW 18.4 mph - N/A   Overcast
11:55 AM 57.2 °F - 53.6 °F 88% 30.11 in 1.8 mi SSW 18.4 mph - N/A   Overcast
12:15 PM 57.2 °F - 53.6 °F 88% 30.10 in 1.8 mi SSW 17.3 mph - N/A   Overcast
12:35 PM 57.2 °F - 55.4 °F 94% 30.09 in 2.0 mi SSW 13.8 mph - N/A   Overcast
12:55 PM 59.0 °F - 55.4 °F 88% 30.08 in 3.0 mi SSW 16.1 mph - N/A   Overcast
1:15 PM 59.0 °F - 55.4 °F 88% 30.08 in 5.0 mi SSW 15.0 mph - N/A   Overcast
1:35 PM 60.8 °F - 55.4 °F 82% 30.07 in 5.0 mi SSW 18.4 mph 21.9 mph N/A   Overcast
1:55 PM 60.8 °F - 55.4 °F 82% 30.07 in 6.0 mi SSW 17.3 mph 21.9 mph N/A   Overcast
2:15 PM 62.6 °F - 55.4 °F 77% 30.06 in 7.0 mi SSW 18.4 mph - N/A   Overcast
2:35 PM 62.6 °F - 55.4 °F 77% 30.06 in 8.0 mi SSW 19.6 mph 24.2 mph N/A   Overcast
2:55 PM 62.6 °F - 55.4 °F 77% 30.06 in 9.0 mi SSW 18.4 mph 21.9 mph N/A   Overcast
3:15 PM 62.6 °F - 55.4 °F 77% 30.06 in 10.0 mi SSW 15.0 mph - N/A   Overcast
3:35 PM 62.6 °F - 55.4 °F 77% 30.05 in 10.0 mi SSW 20.7 mph 25.3 mph N/A   Overcast
3:55 PM 62.6 °F - 55.4 °F 77% 30.04 in 10.0 mi South 20.7 mph 25.3 mph N/A   Overcast
4:15 PM 62.6 °F - 55.4 °F 77% 30.05 in 10.0 mi South 12.7 mph - N/A   Mostly Cloudy
4:35 PM 60.8 °F - 55.4 °F 82% 30.04 in 10.0 mi South 13.8 mph - N/A   Overcast
4:55 PM 62.6 °F - 55.4 °F 77% 30.04 in 9.0 mi SSW 12.7 mph - N/A   Overcast
5:15 PM 62.6 °F - 57.2 °F 82% 30.04 in 10.0 mi SSW 12.7 mph - N/A   Overcast
5:35 PM 62.6 °F - 57.2 °F 82% 30.04 in 9.0 mi SSW 9.2 mph - N/A   Overcast
5:55 PM 60.8 °F - 55.4 °F 82% 30.04 in 8.0 mi South 6.9 mph - N/A   Overcast
6:35 PM 59.0 °F - 55.4 °F 88% 30.05 in 6.0 mi South 3.5 mph - N/A   Mostly Cloudy
6:55 PM 60.8 °F - 55.4 °F 82% 30.05 in 7.0 mi South 4.6 mph - N/A   Mostly Cloudy
7:15 PM 57.2 °F - 53.6 °F 88% 30.04 in 5.0 mi South 6.9 mph - N/A   Clear
7:35 PM 57.2 °F - 55.4 °F 94% 30.04 in 6.0 mi South 9.2 mph - N/A   Scattered Clouds
7:55 PM 60.8 °F - 55.4 °F 82% 30.04 in 9.0 mi South 11.5 mph - N/A   Overcast
8:15 PM 62.6 °F - 57.2 °F 82% 30.05 in 10.0 mi South 11.5 mph - N/A   Overcast
8:35 PM 62.6 °F - 57.2 °F 82% 30.04 in 10.0 mi South 12.7 mph - N/A   Overcast
8:55 PM 62.6 °F - 57.2 °F 82% 30.04 in 10.0 mi SSW 11.5 mph - N/A   Overcast
9:15 PM 62.6 °F - 57.2 °F 82% 30.03 in 10.0 mi South 11.5 mph - N/A   Overcast
9:35 PM 62.6 °F - 57.2 °F 82% 30.03 in 9.0 mi South 11.5 mph - N/A   Overcast
9:55 PM 62.6 °F - 57.2 °F 82% 30.02 in 8.0 mi South 11.5 mph - N/A   Overcast
10:15 PM 62.6 °F - 57.2 °F 82% 30.02 in 9.0 mi South 13.8 mph - N/A   Overcast
10:55 PM 64.4 °F - 57.2 °F 77% 30.02 in 10.0 mi South 16.1 mph - N/A   Overcast
11:35 PM 64.4 °F - 57.2 °F 77% 30.02 in 10.0 mi South 20.7 mph 24.2 mph N/A   Overcast
11:55 PM 64.4 °F - 57.2 °F 77% 30.03 in 10.0 mi South 17.3 mph - N/A   Overcast